GFSFLT1_925_temp_192.txt.gz
Temp
31 31 31 30 28 23 21 20 19 18 18 18 18 17 17 16 15 14 14 14 15 16 15 14 15 15 15 15 15 16 16 17
31 31 31 30 29 23 21 20 19 18 18 17 17 16 17 16 15 14 13 13 14 14 13 14 15 15 14 14 14 15 15 15
30 30 30 29 28 23 21 19 18 17 18 17 17 16 16 16 15 13 13 13 13 14 13 13 14 13 12 13 14 14 13 13
26 25 25 27 26 23 21 19 18 17 18 17 17 16 16 15 13 12 12 12 12 13 13 13 12 12 12 12 12 13 13 12
24 23 24 26 26 23 21 20 18 17 18 17 17 16 15 14 12 12 11 11 12 11 11 11 12 11 10 10 10 11 12 12
21 21 22 23 24 23 20 19 19 18 17 18 17 17 16 14 12 11 11 11 10 10 10 10 10 9 9 8 9 9 10 11
20 21 21 22 23 22 20 19 18 18 17 18 17 17 16 14 12 11 10 10 9 9 9 9 8 7 7 7 7 7 8 8
19 19 19 19 16 17 18 18 17 17 17 17 17 17 16 14 11 10 10 9 8 8 8 7 6 6 5 5 6 6 6 7
19 18 17 18 18 16 15 16 15 16 16 15 15 16 15 13 11 10 10 9 8 7 6 5 5 4 4 5 5 4 4 5
18 17 16 17 17 17 15 14 14 13 13 13 13 13 13 11 11 10 9 6 6 5 4 4 3 3 3 3 4 3 3 3
17 16 15 15 15 11 13 13 11 11 11 11 11 10 9 8 8 6 6 4 4 4 3 2 2 2 2 2 2 3 3 3
17 16 15 14 11 9 8 7 7 7 7 7 8 7 7 6 5 4 4 3 2 1 1 1 1 1 1 2 2 2 2 2
16 15 14 13 11 9 7 6 5 5 6 5 5 5 5 4 3 3 2 2 1 1 0 -0 -0 -0 0 1 1 1 1 1
17 15 14 12 10 9 7 6 5 5 4 4 3 3 3 2 2 2 1 1 0 -0 -1 -1 -1 -1 -2 -1 -1 0 1 1
16 12 10 12 10 8 7 5 4 3 3 3 2 2 2 1 1 1 0 -0 -1 -1 -2 -2 -2 -2 -1 -0 0 0 0 -0
17 15 12 12 10 9 8 6 4 3 3 2 2 1 1 1 0 -0 -1 -1 -1 -2 -2 -2 -1 -1 -1 -0 -0 -0 -1 -1
19 18 12 13 11 9 7 6 4 4 3 2 1 1 0 -0 -0 -1 -1 -2 -2 -2 -2 -2 -1 -2 -1 -0 -0 -1 -1 -1
13 15 15 13 12 9 8 6 5 4 2 1 0 0 -0 -0 -1 -1 -1 -2 -2 -3 -2 -2 -4 -4 -2 -1 -1 -1 -0 -1
14 15 16 14 12 10 8 6 4 2 1 0 0 -0 -1 -1 -1 -2 -2 -2 -3 -3 -3 -4 -5 -5 -3 -2 -1 -1 -1 -1

GFSFLT1_925_temp_198.txt.gz
Temp
22 22 21 20 19 19 19 18 17 17 17 17 18 18 18 18 17 17 17 17 16 17 17 17 16 16 16 16 16 15 15 14
26 23 22 21 20 19 18 18 17 16 16 16 17 17 18 18 17 17 17 16 16 16 16 16 16 16 16 15 16 15 14 14
22 23 23 21 21 19 19 18 17 16 16 17 16 16 15 17 17 16 16 16 16 16 16 16 15 15 15 15 15 14 13 14
17 17 18 18 19 20 19 19 17 17 17 16 17 16 15 15 15 16 15 15 15 15 15 15 15 15 15 15 15 14 12 13
15 14 15 14 15 20 20 19 17 17 16 16 15 15 14 13 14 15 15 14 14 14 14 14 14 14 14 14 14 14 14 12
13 13 14 14 14 17 19 18 16 16 16 15 14 15 14 13 13 14 14 13 14 14 13 13 13 13 13 13 13 13 13 12
13 14 14 13 13 15 15 16 16 15 14 14 15 15 13 11 11 12 13 13 12 12 12 12 12 11 11 11 12 12 12 12
11 11 11 11 11 12 13 14 14 14 14 15 15 14 13 13 12 11 11 11 11 11 11 11 10 10 10 10 10 10 10 10
10 10 10 10 10 12 11 12 12 13 13 14 13 13 12 11 11 10 10 10 10 10 10 9 9 9 9 9 8 8 8 8
10 10 10 9 9 10 10 10 11 11 12 12 12 10 11 11 10 10 10 9 9 8 8 7 7 7 7 7 7 7 7 6
11 10 10 10 9 10 11 10 9 10 10 11 12 12 10 10 9 9 8 8 7 7 6 7 6 6 6 5 5 5 6 5
10 9 10 10 9 9 9 9 8 9 8 9 10 8 9 9 8 7 7 6 6 6 6 5 5 5 4 4 3 3 4 3
9 9 9 9 9 10 8 8 8 7 7 8 7 6 6 6 7 6 6 5 4 5 4 4 3 3 3 3 3 2 3 2
9 8 8 9 9 10 9 8 7 6 5 6 5 5 4 3 3 3 3 3 3 3 2 2 1 1 1 1 0 0 0 -1
11 9 7 9 8 8 7 6 6 5 5 4 4 4 4 3 2 2 2 2 2 1 1 2 1 1 0 -0 -0 -1 -1 -1
12 11 9 8 7 7 6 5 5 4 4 4 3 3 3 2 2 2 2 2 1 1 1 0 -0 -1 -1 -1 -1 -0 0 -0
14 13 10 8 7 6 6 5 4 3 3 2 2 2 2 2 2 1 1 1 0 -0 -1 -1 -2 -2 -2 -1 -1 -1 -2 -2
14 12 12 8 7 7 5 5 4 3 2 2 2 2 2 1 1 0 0 -1 -1 -1 -2 -2 -2 -2 -2 -2 -3 -3 -1 -1
10 9 9 8 7 8 10 6 4 3 2 2 2 2 1 0 0 -0 -1 -1 -1 -2 -2 -3 -3 -3 -3 -3 -3 -2 -1 -2

GFSFLT1_925_temp_201.txt.gz
Temp
22 21 19 19 20 19 18 17 17 16 16 16 17 17 17 17 17 17 17 16 16 16 16 16 17 16 15 15 15 14 13 12
18 18 20 20 19 17 17 17 17 16 15 15 15 16 16 16 17 17 17 17 16 16 16 16 16 16 16 15 14 13 12 11
15 14 14 15 16 18 18 17 17 16 16 15 15 15 14 16 17 17 17 17 16 16 16 16 16 15 15 15 14 13 12 11
13 14 13 13 13 14 16 18 17 16 16 15 15 15 15 14 15 16 17 16 16 16 16 16 16 16 15 15 15 14 12 11
12 12 12 12 12 14 15 17 17 16 16 15 15 15 15 14 14 15 16 15 16 16 16 16 16 16 15 15 14 14 13 11
10 10 11 11 11 12 15 16 18 17 16 15 14 14 14 14 13 14 15 15 15 15 15 15 15 15 15 15 14 13 13 11
10 10 11 12 13 13 12 14 14 15 16 15 15 14 13 12 12 12 12 13 13 14 14 14 14 14 14 13 13 13 12 12
9 9 9 11 12 13 14 12 13 13 13 13 13 13 13 12 11 11 10 10 12 13 13 13 13 12 12 12 12 12 11 11
10 10 9 10 11 11 12 13 13 12 12 12 12 12 11 11 10 10 9 9 7 11 12 12 12 11 10 10 10 10 10 9
10 10 11 11 11 11 11 12 12 12 13 12 11 11 10 10 10 9 9 9 8 8 9 10 9 9 9 9 9 8 8 7
9 9 10 12 11 10 11 11 11 10 10 12 11 10 10 10 10 9 9 8 8 7 8 9 8 7 8 8 7 6 6 5
10 9 10 10 11 10 10 10 9 9 9 8 8 9 10 9 9 7 8 7 7 6 7 6 6 6 6 6 5 4 5 4
11 10 9 10 10 10 9 8 8 7 6 7 8 7 8 8 8 7 7 6 4 5 6 5 5 5 4 4 4 4 3 3
10 10 9 9 8 9 8 8 7 6 5 5 5 6 6 5 4 3 3 3 4 3 2 3 2 3 3 3 2 2 2 2
11 10 8 9 9 9 8 7 6 6 5 4 4 4 4 3 3 3 3 2 2 2 2 2 2 2 2 2 2 1 0 0
12 12 11 9 9 8 8 6 6 5 4 4 3 3 3 2 2 2 2 2 2 2 3 3 2 1 1 1 0 -0 -1 -1
12 12 12 10 8 7 6 5 5 7 4 3 2 2 2 2 1 2 2 2 2 2 1 1 1 0 -1 -1 -1 -1 -2 -2
11 11 11 10 7 6 6 7 6 7 4 3 2 2 1 1 1 1 1 1 1 0 0 -0 -1 -1 -2 -2 -2 -2 -1 -2
9 9 9 7 6 7 8 7 6 3 2 3 2 2 1 1 0 0 -0 -1 -1 -1 -1 -1 -2 -2 -2 -3 -1 -1 -2 -3

GFSFLT1_925_temp_204.txt.gz
Temp
14 14 17 18 18 18 17 17 17 17 16 16 16 16 16 17 17 17 17 16 16 16 16 16 16 15 15 15 15 13 13 11
14 13 13 15 17 17 17 17 17 17 16 15 14 14 14 15 15 16 17 16 16 16 16 16 16 15 16 15 14 13 10 11
12 12 12 12 13 14 15 16 17 17 16 15 15 15 14 14 15 15 16 17 16 16 16 16 16 16 15 15 14 11 10 11
10 11 11 13 14 15 14 14 16 16 16 16 15 15 14 14 14 14 14 15 16 16 16 16 16 16 15 15 14 13 10 10
10 10 11 11 12 14 16 17 16 16 16 16 15 15 14 14 14 14 14 15 15 16 16 16 16 15 15 15 14 13 11 10
9 9 10 11 12 13 14 16 17 16 16 16 16 14 15 15 14 14 13 14 14 15 15 15 15 15 15 15 13 13 12 10
10 11 12 13 14 14 14 14 14 15 16 15 14 14 13 13 14 13 13 13 13 13 14 14 15 15 14 14 14 14 12 11
8 8 9 11 11 12 13 13 13 13 13 15 15 13 12 12 12 12 11 11 11 11 12 12 11 11 11 11 11 12 12 11
9 9 9 10 11 11 11 11 12 12 11 11 12 13 13 12 12 11 11 10 9 9 10 9 9 10 11 9 9 10 10 10
9 10 11 12 13 13 11 11 11 11 11 10 10 11 12 11 11 10 10 9 9 8 8 9 9 9 8 8 8 9 9 9
9 9 10 12 12 13 12 10 9 9 9 8 8 9 10 11 11 10 10 10 10 9 9 9 8 7 6 7 7 6 7 7
8 7 10 11 12 12 12 11 9 8 8 7 7 8 9 9 9 9 10 10 9 8 8 8 7 6 5 6 6 6 6 5
8 8 9 10 10 10 11 12 9 8 8 6 7 7 7 8 8 8 8 8 7 7 6 5 4 4 4 5 4 3 4 3
8 7 7 9 10 10 9 10 9 7 6 6 6 6 6 6 6 6 6 5 4 4 4 4 3 3 3 3 3 2 2 2
9 9 6 8 9 10 9 9 8 6 5 5 5 5 4 4 4 4 4 3 3 2 2 2 2 2 3 3 3 2 2 2
10 10 9 10 10 10 9 8 6 6 5 4 3 4 4 3 3 3 2 2 2 2 2 2 3 3 3 2 1 1 1 0
9 10 9 9 9 9 7 6 6 5 3 3 2 3 3 2 2 1 1 1 1 2 2 3 2 1 2 1 1 0 -0 -1
8 8 8 8 8 8 5 6 6 4 3 2 3 4 2 1 1 1 0 0 0 1 1 1 1 0 -0 -0 -0 -1 -1 -2
7 7 7 7 6 6 6 6 5 3 2 2 3 2 1 1 1 0 0 0 0 0 -0 -1 -1 -1 -2 -1 -1 -2 -2 -2

GFSFLT1_925_temp_207.txt.gz
Temp
14 14 14 15 16 17 17 17 17 16 17 16 16 16 16 16 17 17 17 16 16 15 14 15 16 15 14 13 13 12 12 11
14 14 14 16 15 16 16 16 16 16 16 15 15 15 15 15 15 16 16 16 15 15 14 15 15 13 13 13 12 12 11 11
15 14 14 13 14 14 14 16 16 16 17 16 15 15 15 15 15 14 14 15 15 15 15 14 14 13 13 13 12 11 11 10
15 14 13 13 13 13 13 14 14 16 15 16 15 15 15 14 14 14 14 14 14 14 15 14 15 14 13 12 12 12 12 10
14 14 13 12 11 13 14 15 15 15 15 16 16 16 14 15 16 16 15 14 14 13 13 13 14 14 13 13 12 12 12 10
14 13 12 12 12 13 14 15 16 16 16 15 16 15 15 15 15 15 15 14 13 13 13 12 12 13 13 13 11 11 12 12
13 13 13 13 13 14 14 14 14 15 15 14 14 14 14 14 14 13 12 13 13 12 12 11 12 12 12 12 12 11 11 12
13 14 14 13 13 13 13 12 12 13 14 14 14 12 12 13 13 12 12 12 11 12 12 10 10 11 11 11 10 10 10 10
13 13 13 12 12 12 11 10 10 10 10 11 12 12 12 11 11 12 11 11 11 12 11 10 10 10 9 9 9 10 10 9
13 13 13 12 12 11 11 11 11 11 10 9 9 9 9 10 10 11 11 10 11 11 11 10 9 8 8 9 9 9 9 9
13 13 12 12 12 12 11 10 10 10 11 10 10 9 8 8 9 9 10 10 10 10 9 9 9 8 9 9 9 9 9 8
12 12 11 11 11 11 11 12 10 10 9 9 8 8 9 10 9 9 9 9 9 8 8 8 8 8 8 8 8 7 7 7
10 11 11 11 11 11 11 11 10 9 9 8 7 6 6 6 7 8 8 8 7 7 7 7 7 7 6 6 5 5 5 3
11 11 10 11 11 11 11 10 10 9 7 6 6 5 5 5 5 5 6 6 6 5 5 5 5 4 4 3 3 3 3 4
11 11 10 10 10 10 10 10 9 7 6 5 5 4 5 5 4 4 4 4 4 4 3 3 2 2 2 2 3 2 2 2
11 11 11 10 10 9 9 9 8 6 5 4 4 3 4 3 3 2 3 3 3 3 2 2 2 2 2 2 2 2 2 1
11 11 10 10 9 9 9 8 6 5 4 3 3 3 2 2 2 2 2 1 1 1 1 1 1 2 2 2 1 0 0 0
10 10 9 9 8 8 7 7 5 4 3 3 2 2 2 1 1 1 1 0 1 1 1 1 0 -0 0 -0 -0 -0 -0 -1
9 9 9 8 8 8 6 5 4 3 3 2 2 2 1 1 2 1 0 0 0 0 0 -0 -0 -1 -1 -0 -1 -1 -2 -2